Location: Fairmont
(43.6520°N, 94.4610°W)
Time: 14:15:53
(UTC-06:00)

Cosmos-2242 - Visible Passes

Search period start: 19 December 2014 00:00
Search period end: 29 December 2014 00:00
Orbit: 596 x 622 km, 82.5° (Epoch: 18 December)

Date Brightness Start Highest point End Pass type
(mag) Time Alt. Az. Time Alt. Az. Time Alt. Az.
19 Dec 3.5 06:36:57 10° S 06:41:18 67° E 06:45:41 10° NNE visible
19 Dec 4.5 18:20:46 10° NNW 18:24:53 39° W 18:28:56 10° SSW visible
20 Dec 6.4 05:17:32 10° E 05:18:30 11° E 05:19:28 10° ENE visible
20 Dec 3.0 06:51:07 10° SSW 06:55:29 71° W 06:59:54 10° N visible
20 Dec 5.5 18:35:25 10° NW 18:38:55 24° W 18:42:23 10° SW visible
21 Dec 5.9 05:29:26 10° SE 05:32:26 18° E 05:35:26 10° NE visible
21 Dec 3.5 07:05:35 10° SSW 07:09:44 41° WNW 07:13:56 10° N visible
21 Dec 3.2 17:11:25 10° N 17:15:44 52° ENE 17:19:58 10° SSE visible
21 Dec 6.2 18:50:34 10° NW 18:52:53 14° W 18:55:11 10° WSW visible
22 Dec 5.0 05:42:36 10° SSE 05:46:25 30° E 05:50:16 10° NNE visible
22 Dec 3.1 17:25:31 10° N 17:29:56 89° W 17:34:17 10° S visible
23 Dec 3.9 05:56:14 10° S 06:00:29 51° E 06:04:46 10° NNE visible
23 Dec 4.0 17:39:48 10° NNW 17:44:04 51° W 17:48:16 10° S visible
24 Dec 3.0 06:10:13 10° S 06:14:36 89° E 06:19:03 10° N visible
24 Dec 5.1 17:54:18 10° NNW 17:58:07 30° W 18:01:53 10° SSW visible
25 Dec 6.1 04:49:18 10° ESE 04:51:39 14° E 04:54:01 10° NE visible
25 Dec 3.1 06:24:31 10° SSW 06:28:48 53° WNW 06:33:09 10° N visible
25 Dec 6.0 18:09:08 10° NW 18:12:05 18° W 18:15:01 10° SW visible
26 Dec 5.4 05:02:05 10° SE 05:05:35 24° E 05:09:07 10° NE visible
26 Dec 3.8 06:39:09 10° SW 06:43:05 31° WNW 06:47:02 10° NNW visible
26 Dec 6.4 18:25:09 10° WNW 18:25:58 11° W 18:26:48 10° W visible
27 Dec 4.4 05:15:30 10° SSE 05:19:36 40° E 05:23:43 10° NNE visible
27 Dec 4.4 06:54:14 10° WSW 06:57:25 19° WNW 07:00:38 10° NNW visible
28 Dec 3.3 05:29:18 10° S 05:33:40 69° E 05:38:04 10° NNE visible
28 Dec 4.8 07:10:09 10° W 07:11:51 12° WNW 07:13:33 10° NW visible
